Simultaneous Nadir Overpasses (SNOs) Predictions

Prediction of SNOs between GOES-16 and LANDSAT-8 Satellite Orbit:

Table of predicted SNOs for the next 14.0 days since TLE Epoch: 4/9/2022
Index Date Time (GOES-16) GOES-16 Lat,Lon LANDSAT-8 Lat,Lon Distance(km) Time Diff (sec)
1 04/11/2022 03:03:19 -0.06, -75.21 0.35, -73.22 225.80 80
2 04/11/2022 15:24:35 0.06, -75.22 0.73, -78.38 359.40 80
3 04/13/2022 15:12:25 0.05, -75.23 0.07, -75.44 23.17 80
4 04/15/2022 15:02:54 0.05, -75.25 -0.54, -72.49 314.20 80
5 04/16/2022 03:24:18 -0.05, -75.24 -0.58, -77.68 277.00 80
6 04/18/2022 03:09:27 -0.05, -75.26 0.04, -74.73 60.60 80
7 04/20/2022 02:57:16 -0.05, -75.28 0.67, -71.78 398.11 80
8 04/20/2022 15:18:32 0.05, -75.30 0.40, -76.94 186.91 80
9 04/22/2022 15:09:01 0.04, -75.32 -0.24, -73.99 150.88 80
